User: anonymous   Login
Location: Unspecified
(0.0000°N, 0.0000°E)
Time: 17:40:32
(UTC+00:00)
Language:

AO-Echo - Orbit

View from above orbital plane
View from above orbital plane
View from above satellite
View from above satellite

Ground track
Ground track

The orbit data is extracted from the following two-line orbital elements,

1 28375U 04025K   18017.79614454  .00000018  00000-0  18737-4 0  9992
2 28375  98.3763 311.9536 0082550 357.2748   2.7981 14.41872458712749
Epoch (UTC): 17 January 2018 19:06:26
Eccentricity: 0.0082550
inclination: 98.3763°
perigee height: 693 km
apogee height: 811 km
right ascension of ascending node: 311.9536°
argument of perigee: 357.2748°
revolutions per day: 14.41872458
mean anomaly at epoch: 2.7981°
orbit number at epoch: 71274

The dashed part of the orbit path shows where the satellite is in the earth's shadow,  

DLR